カタログに戻る

CZ-6A DEB

運用中SSO
NORAD 56630·DEBRIS·🇨🇳 China

打ち上げ Nov 11, 2022 から Taiyuan Satellite Launch Center

Loading…

次のパス (今後24時間)

TLE

経年Source: Space-Track

元期: Sep 10, 2026, 05:18 UTC

1 56630U 22151AFE 26253.22138496  .00001013  00000-0  55281-3 0  9993
2 56630  98.8478 253.1324 0054160  97.1303 263.6032 14.13580286173961

AllMySatでCZ-6A DEBをリアルタイム追跡

Download on the App Store